Find Starlink 4758

NORAD ID: 53820 Int'l Des: 2022-114 Owner: SPXS Country: US Constellation: starlink operational
LEOCIRCULAR

リアルタイム位置

3D地球を読み込み中...

Starlink 4758について

説明を読み込み中...

次回通過

Passes for default location (London). Set your location on the main map for personalized predictions.

高度履歴

Loading altitude history...

軌道要素

1 53820U 22114C 26122.11479436 -.00000006 00000-0 17716-4 0 9999
2 53820 53.2170 64.5046 0001264 84.2338 275.8798 15.08849613200894
Epoch: May 2, 2026 • Age: 18 hours

現在のステータス

高度 545.1 km
速度 7.60 km/s
衛星直下点 51.88°N, 37.04°W
打ち上げ日 Sep 19, 2022
運用期間 3.6 years
タイプ internet

技術仕様

分類 Payload
質量 305.00 kg
乾燥質量 290.00 kg
総質量 305.00 kg
長さ 0.20 m
直径 2.80 m
スパン 9.00 m
形状 Box + pan
製造者 SPXS
バスタイプ Starlink
フェーズステータス In Orbit
所有者/国 SPXS/US

Most Searched